[[{"header":{"parameterUnit":"m.s-1","parameterCategory":1,"la1":30.2991,"la2":30.254,"lo1":-89.0895,"lo2":-89.0444,"dy":0.0017,"dx":0.0017,"nx":28,"ny":28,"refTime":"2025-01-27T09:00:00:Z","depth":0,"parameterNumber":2,"parameterNumberName":"U-component_of_WINDS"},"data":[0,0,0,0,0,0,0,0,0,0,0,0,0,0,0,0,0,0,0,0,0,0,0,0,0,0,0,0,0,0,0,0,0,0,0,0,0,0,0,0,0,0,0,0,0,0,0,0,0,0,0,0,0,0,0,0,0,0,0.1553,0.1554,0,0.1583,0.1584,0.1584,0.1608,0.1608,0.1608,0.1608,0.1639,0.1639,0.164,0,0,0,0,0,0,0,0,0,0,0,0,0,0.1516,0.1516,0.1553,0.1554,0.1554,0.1583,0.1584,0.1584,0.1608,0.1608,0.1608,0.1609,0.1638,0.1639,0.164,0,0,0,0,0,0,0,0,0,0,0,0,0,0.1538,0.1517,0.1553,0.1569,0.1571,0.1583,0.1584,0.1584,0.1608,0.1608,0.1608,0.1609,0.1638,0.1639,0.164,0.1638,0,0,0.1642,0.1643,0,0,0,0,0,0,0,0,0.1536,0.1539,0.1567,0.1568,0.157,0.1592,0.1581,0.1602,0.1608,0.1594,0.1608,0.1609,0.1623,0.1625,0.163,0.1639,0.1641,0.1643,0.1643,0.1643,0.1644,0,0,0,0,0,0,0,0.1535,0.1538,0.1565,0.1567,0.1569,0.1575,0.1578,0.1585,0.1606,0.1595,0.1597,0.16,0.1624,0.1629,0.1631,0.1641,0.1642,0.1643,0.1644,0.1644,0.165,0.165,0,0,0,0,0,0,0.1531,0.1536,0.1564,0.1566,0.1554,0.1575,0.1579,0.1585,0.1606,0.1609,0.16,0.1601,0.1627,0.163,0.1632,0.1631,0.1643,0.1644,0.1645,0.165,0.165,0.165,0,0,0,0,0,0,0.153,0.1533,0.1563,0.1552,0.1556,0.1576,0.1582,0.1585,0.159,0.1609,0.1613,0.1601,0.1628,0.1631,0.1636,0.1632,0.1645,0.1645,0.1651,0.165,0.165,0.1628,0,0,0,0,0,0,0.1529,0.1533,0.1532,0.1552,0.1556,0.1567,0.1581,0.1585,0.1592,0.1594,0.1612,0.1615,0.1628,0.1635,0.1637,0.1633,0.1646,0.1651,0.1651,0.165,0.1629,0.1627,0.1625,0,0,0,0,0,0.1527,0.1525,0.1532,0.1535,0.1556,0.1567,0.1569,0.1585,0.1591,0.1591,0.1603,0.1614,0.1632,0.1635,0.1638,0.1634,0.1652,0.1651,0.165,0.163,0.1628,0.1625,0,0,0,0,0,0,0.1505,0.1528,0.1536,0.154,0.1551,0.1571,0.1571,0.1581,0.1591,0.1592,0.161,0.1614,0.1618,0.1627,0.163,0.1633,0.1643,0.1643,0.1627,0.1625,0.1623,0.162,0.1647,0,0,0,0,0,0.15,0.1507,0.1527,0.1528,0.1533,0.1551,0.1556,0.1567,0.1579,0.1584,0.1597,0.1608,0.1616,0.1621,0.163,0.1631,0.1635,0.163,0.1628,0.1626,0.1625,0.1626,0.1624,0.1647,0.1647,0.1647,0,0,0.1491,0.1504,0.1507,0.1524,0.1534,0.154,0.1555,0.1561,0.1565,0.1585,0.1591,0.16,0.1614,0.1618,0.162,0.1625,0.162,0.1625,0.1623,0.1624,0.1625,0.1623,0.1621,0.1646,0.1647,0.1647,0,0,0.1477,0.1488,0.149,0.15,0.1515,0.1526,0.1527,0.1545,0.1552,0.1559,0.1573,0.1579,0.1592,0.1602,0.1608,0.1597,0.1608,0.1599,0.1588,0.1588,0.1587,0.1585,0.1581,0.1579,0.1599,0.1599,0.1599,0,0.1463,0.1473,0.149,0.1495,0.1501,0.1519,0.1521,0.153,0.1547,0.1551,0.1557,0.1574,0.1585,0.159,0.1588,0.1592,0.1593,0.1597,0.1586,0.1584,0.1583,0.1579,0.1577,0.1598,0.1598,0.1598,0.1598,0,0.1455,0.1462,0.1462,0.1478,0.1485,0.1488,0.1505,0.151,0.152,0.1531,0.1537,0.155,0.1562,0.1564,0.1574,0.1571,0.1573,0.1582,0.1592,0.1579,0.1576,0.1575,0.1596,0.1596,0.1597,0.1597,0,0,0.1428,0.1453,0.1452,0.146,0.1477,0.1483,0.1487,0.1498,0.1502,0.1513,0.1516,0.1527,0.1536,0.1543,0.1554,0.1555,0.1545,0.1563,0.1564,0.1559,0.1541,0.1534,0.1532,0.1552,0.1552,0.1551,0.154,0,0.1416,0.1425,0.144,0.1443,0.145,0.1467,0.147,0.1481,0.1492,0.1498,0.151,0.1517,0.1528,0.1532,0.1533,0.1545,0.1541,0.1547,0.1555,0.1555,0.155,0.1531,0.1523,0.1512,0.1539,0.1539,0.1538,0,0.1404,0.1414,0.1418,0.1435,0.1438,0.1441,0.1452,0.1459,0.1471,0.1479,0.1487,0.1499,0.1504,0.1514,0.152,0.1524,0.1528,0.1535,0.1534,0.1535,0.1546,0.153,0.1508,0.1506,0.1537,0.1537,0.1537,0,0.1382,0.1397,0.1401,0.1407,0.1427,0.1429,0.1437,0.1451,0.1456,0.1466,0.147,0.148,0.1486,0.1493,0.1508,0.1513,0.1513,0.1524,0.1519,0.1518,0.1517,0.1517,0.1495,0.1521,0.1521,0.1521,0.1521,0,0.1367,0.1369,0.1392,0.1395,0.1397,0.1414,0.1416,0.1426,0.1438,0.1442,0.1458,0.1462,0.1481,0.1487,0.1498,0.1502,0.1504,0.151,0.1513,0.1509,0.1508,0.1511,0.1512,0.1521,0.1521,0.1521,0.1521,0,0.1344,0.1359,0.1365,0.1384,0.1388,0.1389,0.1405,0.1408,0.1419,0.1425,0.1427,0.1445,0.1453,0.1468,0.148,0.1488,0.1489,0.1494,0.1485,0.1486,0.148,0.148,0.1459,0.1457,0.1485,0.1484,0.1484,0,0.1333,0.1335,0.1354,0.1358,0.1366,0.1373,0.1378,0.1395,0.1401,0.1415,0.1416,0.1426,0.1434,0.1446,0.1459,0.1469,0.1474,0.1466,0.1476,0.1471,0.1474,0.1473,0.1473,0.1464,0.1464,0.1463,0.1463,0,0.1312,0.132,0.1328,0.1338,0.1345,0.1354,0.1364,0.1366,0.1385,0.1391,0.1399,0.1405,0.1418,0.1427,0.1438,0.1446,0.1458,0.146,0.1459,0.1454,0.1448,0.1451,0.1478,0.146,0.1461,0.1461,0.1461,0.1461,0.1294,0.1297,0.131,0.1318,0.1328,0.1336,0.134,0.1352,0.1359,0.1371,0.138,0.1388,0.14,0.1417,0.1424,0.143,0.1436,0.1435,0.1434,0.1434,0.1431,0.1448,0.1432,0.1432,0.1433,0.1433,0.1433,0,0.1274,0.1283,0.1291,0.1304,0.1311,0.1321,0.1332,0.1337,0.1343,0.1354,0.1362,0.1371,0.138,0.1394,0.1404,0.1406,0.1411,0.1408,0.1407,0.1409,0.1426,0.1426,0.1403,0.1403,0.1403,0.1403,0.1403,0.1403,0.1264,0.1268,0.1277,0.1286,0.1295,0.1303,0.1308,0.1316,0.1325,0.1335,0.1342,0.1351,0.1364,0.1374,0.1382,0.1386,0.1389,0.1384,0.1389,0.1405,0.1408,0.141,0.141,0.1384,0.1384,0.1371,0.1371,0.1371]},{"header":{"parameterUnit":"m.s-1","parameterCategory":1,"la1":30.2991,"la2":30.254,"lo1":-89.0895,"lo2":-89.0444,"dy":0.0017,"dx":0.0017,"nx":28,"ny":28,"refTime":"2025-01-27T09:00:00:Z","depth":0,"parameterNumber":3,"parameterNumberName":"V-component_of_WINDS"},"data":[0,0,0,0,0,0,0,0,0,0,0,0,0,0,0,0,0,0,0,0,0,0,0,0,0,0,0,0,0,0,0,0,0,0,0,0,0,0,0,0,0,0,0,0,0,0,0,0,0,0,0,0,0,0,0,0,0,0,-0.2174,-0.2174,0,-0.2196,-0.2196,-0.2197,-0.2201,-0.2201,-0.2201,-0.2201,-0.2225,-0.2226,-0.2227,0,0,0,0,0,0,0,0,0,0,0,0,0,-0.2136,-0.2136,-0.2174,-0.2174,-0.2174,-0.2196,-0.2196,-0.2197,-0.2201,-0.2201,-0.2201,-0.2201,-0.2225,-0.2226,-0.2227,0,0,0,0,0,0,0,0,0,0,0,0,0,-0.2155,-0.2137,-0.2174,-0.2179,-0.218,-0.2196,-0.2196,-0.2197,-0.2201,-0.2201,-0.2201,-0.2201,-0.2225,-0.2226,-0.2227,-0.224,0,0,-0.2231,-0.2231,0,0,0,0,0,0,0,0,-0.2153,-0.2156,-0.2178,-0.2179,-0.218,-0.2196,-0.2192,-0.2211,-0.2202,-0.2193,-0.2201,-0.2201,-0.2216,-0.2218,-0.2222,-0.2241,-0.2242,-0.2231,-0.2232,-0.2232,-0.2232,0,0,0,0,0,0,0,-0.2152,-0.2155,-0.2183,-0.2178,-0.2179,-0.2181,-0.2183,-0.2196,-0.2206,-0.2194,-0.2194,-0.2197,-0.2216,-0.2221,-0.2223,-0.2242,-0.2231,-0.2232,-0.2233,-0.2233,-0.2272,-0.2273,0,0,0,0,0,0,-0.215,-0.2154,-0.2182,-0.2183,-0.2166,-0.2182,-0.2184,-0.2191,-0.2206,-0.2208,-0.2197,-0.2197,-0.2219,-0.2222,-0.2224,-0.224,-0.2232,-0.2233,-0.2234,-0.2272,-0.2272,-0.2273,0,0,0,0,0,0,-0.2149,-0.2152,-0.2181,-0.2169,-0.2172,-0.2183,-0.219,-0.2191,-0.2197,-0.2208,-0.221,-0.22,-0.2219,-0.2222,-0.2236,-0.2241,-0.2234,-0.2235,-0.2272,-0.2272,-0.2273,-0.2271,0,0,0,0,0,0,-0.2148,-0.2152,-0.2156,-0.2169,-0.2173,-0.2192,-0.219,-0.2192,-0.2198,-0.2199,-0.2212,-0.2214,-0.2219,-0.2234,-0.2237,-0.2242,-0.2236,-0.2271,-0.2272,-0.2273,-0.2271,-0.2272,-0.2272,0,0,0,0,0,-0.2146,-0.2155,-0.2157,-0.216,-0.2179,-0.2192,-0.2195,-0.2201,-0.2199,-0.2204,-0.2211,-0.2213,-0.224,-0.2235,-0.2239,-0.2244,-0.2271,-0.2272,-0.2272,-0.2271,-0.2271,-0.2272,0,0,0,0,0,0,-0.2144,-0.2157,-0.2159,-0.2172,-0.2181,-0.2193,-0.2199,-0.2201,-0.2211,-0.2211,-0.2219,-0.2222,-0.2235,-0.2241,-0.2236,-0.2257,-0.2255,-0.2257,-0.2253,-0.2254,-0.2254,-0.2252,-0.2237,0,0,0,0,0,-0.2144,-0.2154,-0.2165,-0.2176,-0.218,-0.2189,-0.2195,-0.2199,-0.2208,-0.2212,-0.2221,-0.223,-0.2241,-0.2248,-0.2258,-0.2272,-0.2275,-0.2278,-0.2278,-0.2279,-0.228,-0.2288,-0.2289,-0.2275,-0.2275,-0.2275,0,0,-0.2146,-0.2155,-0.216,-0.2175,-0.2183,-0.2192,-0.2192,-0.2202,-0.2209,-0.2214,-0.2227,-0.2234,-0.2245,-0.2259,-0.2265,-0.2264,-0.2284,-0.228,-0.228,-0.2281,-0.2288,-0.229,-0.2291,-0.2276,-0.2276,-0.2275,0,0,-0.2155,-0.2162,-0.2172,-0.2179,-0.219,-0.2196,-0.2198,-0.221,-0.2215,-0.2228,-0.2231,-0.2241,-0.2259,-0.2266,-0.2273,-0.2285,-0.2287,-0.2288,-0.2291,-0.2299,-0.23,-0.2301,-0.2305,-0.2306,-0.2289,-0.2289,-0.2289,0,-0.2156,-0.217,-0.2176,-0.2186,-0.2193,-0.2197,-0.2207,-0.2214,-0.2228,-0.2233,-0.2232,-0.2254,-0.2262,-0.2278,-0.2281,-0.2286,-0.2289,-0.2286,-0.2299,-0.23,-0.2301,-0.2305,-0.2306,-0.2289,-0.2289,-0.2289,-0.2289,0,-0.2171,-0.2181,-0.2187,-0.22,-0.2207,-0.2217,-0.2225,-0.2232,-0.2236,-0.2242,-0.2255,-0.2265,-0.2277,-0.2282,-0.2285,-0.2298,-0.2297,-0.2297,-0.2295,-0.2302,-0.2306,-0.2308,-0.2289,-0.2289,-0.2289,-0.2289,0,0,-0.2177,-0.2194,-0.2196,-0.2202,-0.2215,-0.2223,-0.2233,-0.2245,-0.225,-0.226,-0.2269,-0.2284,-0.2285,-0.2292,-0.2297,-0.2304,-0.2312,-0.2303,-0.2304,-0.2304,-0.2326,-0.2326,-0.2327,-0.2314,-0.2314,-0.2314,-0.2325,0,-0.2187,-0.2205,-0.2211,-0.2226,-0.2235,-0.224,-0.2249,-0.2258,-0.2264,-0.2273,-0.228,-0.2291,-0.2291,-0.2295,-0.2302,-0.231,-0.2317,-0.2309,-0.2322,-0.2323,-0.2319,-0.2329,-0.2328,-0.2338,-0.2327,-0.2327,-0.2327,0,-0.22,-0.221,-0.2225,-0.2237,-0.2241,-0.2249,-0.2261,-0.2269,-0.228,-0.2284,-0.2292,-0.2296,-0.2308,-0.2305,-0.2321,-0.2316,-0.2322,-0.2326,-0.2327,-0.2328,-0.2325,-0.233,-0.2341,-0.2343,-0.233,-0.233,-0.2329,0,-0.2203,-0.222,-0.2232,-0.2237,-0.2251,-0.2256,-0.2262,-0.2273,-0.2279,-0.2289,-0.2294,-0.2305,-0.2312,-0.2321,-0.2328,-0.2326,-0.2343,-0.2342,-0.2347,-0.2347,-0.235,-0.235,-0.2362,-0.2355,-0.2355,-0.2355,-0.2355,0,-0.2213,-0.2222,-0.2233,-0.224,-0.2251,-0.2258,-0.2269,-0.2275,-0.2284,-0.2293,-0.2298,-0.2306,-0.2316,-0.2325,-0.2331,-0.2344,-0.2347,-0.235,-0.2352,-0.235,-0.2349,-0.2353,-0.2353,-0.2355,-0.2355,-0.2355,-0.2355,0,-0.2217,-0.2225,-0.2238,-0.225,-0.2253,-0.2261,-0.2272,-0.2279,-0.2285,-0.2296,-0.2299,-0.231,-0.2321,-0.233,-0.2345,-0.2349,-0.2362,-0.2363,-0.2358,-0.2358,-0.2363,-0.2363,-0.2378,-0.2381,-0.2372,-0.2372,-0.2372,0,-0.2223,-0.223,-0.2243,-0.2249,-0.2255,-0.2265,-0.2272,-0.2279,-0.2286,-0.2299,-0.2305,-0.2317,-0.2326,-0.2345,-0.2354,-0.2365,-0.2367,-0.2372,-0.2369,-0.2366,-0.2367,-0.2366,-0.2367,-0.2372,-0.2372,-0.2372,-0.2372,0,-0.2231,-0.2235,-0.2244,-0.2255,-0.2263,-0.2272,-0.2281,-0.2286,-0.2295,-0.2303,-0.2315,-0.2322,-0.2337,-0.2349,-0.2362,-0.2369,-0.2372,-0.2373,-0.2375,-0.2373,-0.2369,-0.2371,-0.2359,-0.2373,-0.2373,-0.2373,-0.2373,-0.2373,-0.2236,-0.2243,-0.2253,-0.2264,-0.2271,-0.228,-0.2287,-0.2294,-0.2304,-0.2317,-0.2321,-0.2333,-0.2344,-0.2361,-0.2368,-0.2378,-0.2378,-0.238,-0.2381,-0.2381,-0.2381,-0.2368,-0.238,-0.238,-0.238,-0.238,-0.238,0,-0.2245,-0.2252,-0.2261,-0.2274,-0.2282,-0.2284,-0.2295,-0.2302,-0.2312,-0.2322,-0.2331,-0.2344,-0.2356,-0.2366,-0.2378,-0.2384,-0.2386,-0.2387,-0.2386,-0.2388,-0.2381,-0.2378,-0.2385,-0.2385,-0.2385,-0.2385,-0.2385,-0.2385,-0.225,-0.2262,-0.2266,-0.2282,-0.2289,-0.23,-0.2306,-0.2314,-0.2322,-0.2336,-0.2346,-0.2352,-0.2362,-0.2375,-0.2385,-0.2388,-0.2392,-0.2393,-0.2396,-0.2389,-0.2388,-0.2388,-0.2385,-0.2394,-0.2394,-0.2402,-0.2402,-0.2402]}]]